Flag for India Weather past 2 weeks in Nagercoil, Tamil Nadu, India

88 °F

Scattered clouds.

Feels Like: 102 °F
Forecast: 75 / 89 °F
Wind: 6 mph from Southwest

Location: Thiruvananthapuram

Current Time: Nov 27, 2015 at 2:03:15 PM

Latest Report: Nov 27, 2015 at 1:30 PM

Visibility: 4 mi

Pressure: 29.77 "Hg

Humidity: 75%

Dew point: 79 °F

Location of NagercoilLocation

Historic Weather in Nagercoil — Graph


Nagercoil temperature yesterday

Maximum temperature yesterday: 90 °F (at 1:30 PM)
Minimum temperature yesterday: 79 °F (at 2:30 AM)
Average temperature yesterday: 84 °F

Past Weeks' High & Low Weather Summary

High90 °F (Nov 17, 1:00 PM)94% (Nov 12, 10:40 PM)30.04 "Hg (Nov 12, 10:40 PM)
Low77 °F (Nov 12, 10:40 PM)66% (Nov 21, 11:30 AM)29.68 "Hg (Nov 15, 3:00 PM)
Average82 °F83%29.78 "Hg
* Reported Nov 12 12:40 PM — Nov 27 12:30 PM, Nagercoil, Weather by CustomWeather, © 2015

Note: Actual official high and low records may vary slightly from our data, if they occured in-between our weather recording intervals... More about our weather records


Nagercoil weather history for previous 24 hours

Time TempWeatherWind HumidityBarometerVisibility
12:30 PM
Fri, Nov 27
88 °FScattered clouds.9 mph75%29.80 "Hg4 mi
12:00 PM88 °FScattered clouds.5 mph75%29.83 "Hg4 mi
11:00 AM86 °FHaze.5 mph75%29.83 "Hg3 mi
10:00 AM84 °FScattered clouds.6 mph79%29.86 "Hg2 mi
9:00 AM84 °FHaze.6 mph74%29.86 "Hg2 mi
8:00 AM81 °FHaze.3 mph89%29.83 "Hg1 mi
7:00 AM79 °FHaze.6 mph84%29.80 "Hg1 mi
1:30 AM79 °FHaze.3 mph89%29.80 "Hg2 mi
1:00 AM81 °FHaze.No wind84%29.83 "Hg2 mi
12:30 AM81 °FHaze.No wind84%29.83 "Hg2 mi
12:00 AM81 °FHaze.3 mph84%29.83 "Hg2 mi
11:00 PM
Thu, Nov 26
81 °FPassing clouds.3 mph84%29.86 "Hg2 mi
10:30 PM82 °FPassing clouds.3 mph79%29.86 "Hg2 mi
10:00 PM82 °FPassing clouds.3 mph79%29.86 "Hg2 mi
9:30 PM82 °FPassing clouds.3 mph79%29.83 "Hg2 mi
8:30 PM82 °FPassing clouds.7 mph79%29.83 "Hg3 mi
8:00 PM84 °FPassing clouds.7 mph74%29.83 "Hg3 mi
7:30 PM84 °FPassing clouds.3 mph74%29.80 "Hg3 mi
7:00 PM84 °FPassing clouds.3 mph74%29.80 "Hg3 mi
6:30 PM86 °FPassing clouds.3 mph75%29.80 "Hg3 mi
6:00 PM86 °FScattered clouds.6 mph75%29.77 "Hg3 mi
5:30 PM88 °FScattered clouds.7 mph70%29.77 "Hg4 mi
4:30 PM88 °FPassing clouds.7 mph75%29.74 "Hg4 mi
3:30 PM90 °FPassing clouds.7 mph71%29.74 "Hg4 mi
2:30 PM90 °FPassing clouds.6 mph71%29.77 "Hg4 mi
2:00 PM90 °FPassing clouds.7 mph71%29.77 "Hg4 mi
Weather by CustomWeather, © 2015

See weather overviewHow to use our weather pages